Location: �quirre
(50.4736°N, 2.2351°E)
Time: 17:30:54
(UTC+00:00)

Okean 2 Rocket - Pass Details

Date: 07 August 2020
Orbit: 616 x 642 km, 82.5° (Epoch: 25 September)

Event Time Altitude Azimuth Distance (km) Brightness Sun altitude
Exits shadow 00:41:44 47° 125° (SE) 838 3.5 -22.5°
Maximum altitude 00:42:23 52° 94° (E) 791 3.5 -22.4°
Drops below altitude 10° 00:46:45 10° 19° (NNE) 2,035 6.8 -22.3°
Sets 00:49:03 0° 15° (NNE) 2,952 8.1 -22.2°
